Dewpoint
76 76 75 76 76 75 75 75 75 74 74 73 74 73 73 73 74 73 73 73 71 71 70 70 71 71 70 72 71 72 71 70 69 69 69 70 68 67 66 66 66 71
76 76 76 75 76 76 76 75 75 75 75 75 74 75 75 73 73 72 72 70 70 70 70 69 70 71 71 70 71 71 72 70 70 68 69 69 69 71 68 69 68 71
76 76 75 75 74 75 73 75 75 75 74 74 74 75 73 72 71 72 72 70 69 69 69 69 69 70 70 71 71 70 69 71 69 68 69 69 69 68 70 63 66 66
76 76 74 74 74 74 75 75 75 75 74 74 73 73 72 71 71 70 72 71 70 69 69 69 68 68 70 70 70 70 70 70 69 70 70 70 69 70 68 69 69 70
76 76 75 74 74 75 75 75 72 74 72 73 73 73 73 73 72 70 71 70 71 69 69 69 69 69 70 70 70 69 69 69 69 69 71 69 70 69 69 70 69 66
76 77 76 75 75 75 75 74 74 73 72 72 73 72 73 73 72 70 70 68 69 67 67 68 68 68 69 69 70 70 68 67 67 68 68 69 68 68 67 68 67 66
76 76 76 75 75 75 75 75 74 74 73 72 74 73 72 72 72 71 70 69 68 68 67 67 68 68 69 69 69 69 69 69 68 68 68 68 68 68 66 67 67 67
76 76 76 75 75 75 74 74 74 74 74 74 73 73 72 71 72 71 70 70 68 69 68 68 69 69 68 69 69 69 69 68 68 69 68 68 67 67 68 66 67 67
76 76 76 75 74 74 72 72 74 75 75 74 72 72 73 72 72 70 71 70 69 68 69 68 69 69 69 68 68 69 68 68 68 68 67 67 67 66 66 67 67 67
77 77 75 73 72 73 72 71 71 74 75 74 73 72 72 73 72 71 70 70 69 68 69 68 69 68 68 68 69 69 68 68 68 68 67 67 67 66 65 66 66 66
76 76 75 74 73 72 72 71 71 72 74 73 73 72 72 72 72 71 71 70 69 68 68 68 68 68 68 67 68 69 69 68 68 68 68 67 67 66 67 66 66 65
76 75 74 74 74 72 72 71 71 73 73 73 73 72 73 72 71 70 70 70 69 68 68 68 69 68 68 67 67 68 69 68 67 67 66 67 66 66 66 66 66 66
75 75 75 74 74 74 73 72 71 70 71 72 72 72 71 71 71 70 70 70 69 68 68 68 69 69 69 68 68 68 69 68 67 66 66 66 66 65 65 65 65 65
76 76 75 75 75 75 75 73 73 73 73 74 73 72 71 71 70 70 70 70 70 68 68 69 69 68 68 68 68 68 68 67 67 66 65 66 66 66 64 63 64 64
77 77 76 76 76 76 76 75 75 75 75 75 74 73 72 71 71 71 70 70 70 68 68 69 68 67 68 68 67 68 67 66 66 65 65 65 65 64 65 64 64 63
77 77 77 77 77 77 77 76 76 76 75 75 75 74 74 73 72 72 69 70 69 68 69 70 68 67 66 63 65 67 66 66 66 66 65 64 65 65 64 64 63 63
78 78 78 77 77 78 77 77 77 77 76 75 75 75 74 74 74 72 69 69 68 67 68 68 68 67 62 61 63 65 66 67 66 65 65 65 65 65 64 64 64 67
78 78 78 78 78 78 78 77 77 77 77 76 76 75 75 74 73 73 71 69 69 68 68 67 68 65 60 62 63 63 65 66 65 65 65 65 65 64 67 68 68 66
79 78 78 78 78 78 78 77 77 76 76 75 75 75 75 74 75 73 72 69 68 68 67 66 68 61 60 61 62 61 63 65 66 65 65 67 69 68 67 68 68 66
79 78 77 77 77 78 77 77 76 76 76 75 75 75 75 74 73 73 72 71 69 68 67 67 66 59 59 59 60 60 62 64 65 65 67 67 66 66 64 64 66 66
78 78 78 77 77 77 77 76 76 76 75 75 75 74 74 74 73 72 72 70 69 68 68 65 63 59 58 58 59 59 60 63 66 65 65 65 66 65 65 63 64 69
78 77 77 77 77 77 76 76 76 75 75 75 74 73 73 74 73 72 71 69 69 67 65 64 64 58 57 57 57 57 59 64 65 65 63 63 64 64 64 64 68 70
77 77 77 77 76 76 76 75 75 75 75 75 74 72 72 73 72 71 71 68 67 67 65 64 64 58 56 56 56 56 59 64 64 62 62 62 62 64 64 64 70 69
77 76 76 75 75 75 75 74 74 75 75 75 73 71 71 70 69 69 69 69 67 65 62 65 64 58 54 54 54 55 59 62 62 61 62 62 63 64 65 69 69 70
76 75 76 75 74 74 73 73 73 74 73 73 72 72 71 70 68 67 66 67 64 63 64 63 63 59 53 54 53 53 58 61 61 62 62 64 64 64 68 69 69 68
75 75 75 74 74 74 74 73 73 72 72 72 71 70 69 68 67 66 65 64 62 62 61 61 61 64 59 53 52 52 54 60 62 63 62 63 64 65 69 68 68 68